[[{"header":{"parameterUnit":"m.s-1","parameterCategory":1,"la1":30.2991,"la2":30.254,"lo1":-89.0895,"lo2":-89.0444,"dy":0.0017,"dx":0.0017,"nx":28,"ny":28,"refTime":"2023-11-21T09:00:00:Z","depth":0,"parameterNumber":2,"parameterNumberName":"U-component_of_WINDS"},"data":[0,0,0,0,0,0,0,0,0,0,0,0,0,0,0,0,0,0,0,0,0,0,0,0,0,0,0,0,0,0,0,0,0,0,0,0,0,0,0,0,0,0,0,0,0,0,0,0,0,0,0,0,0,0,0,0,0,0,-1.4912,-1.4913,0,-1.5014,-1.5015,-1.5016,-1.4934,-1.4931,-1.4927,-1.4924,-1.5031,-1.5037,-1.5043,0,0,0,0,0,0,0,0,0,0,0,0,0,-1.4647,-1.4652,-1.4912,-1.4913,-1.4914,-1.5014,-1.5015,-1.5017,-1.4935,-1.4931,-1.4927,-1.4923,-1.5029,-1.5037,-1.5044,0,0,0,0,0,0,0,0,0,0,0,0,0,-1.4757,-1.4654,-1.4912,-1.4886,-1.4884,-1.5014,-1.5015,-1.5017,-1.4936,-1.4931,-1.4925,-1.4921,-1.5027,-1.5036,-1.5045,-1.5206,0,0,-1.5073,-1.5077,0,0,0,0,0,0,0,0,-1.4751,-1.4767,-1.4888,-1.4888,-1.4886,-1.4956,-1.4961,-1.5081,-1.4937,-1.4916,-1.4924,-1.4918,-1.5011,-1.5021,-1.5052,-1.5211,-1.5216,-1.5074,-1.5079,-1.5083,-1.5086,0,0,0,0,0,0,0,-1.4743,-1.4762,-1.4952,-1.489,-1.4889,-1.4869,-1.4879,-1.4984,-1.4992,-1.4918,-1.4912,-1.4925,-1.5009,-1.5043,-1.5054,-1.5218,-1.5074,-1.5082,-1.5087,-1.5091,-1.5515,-1.552,0,0,0,0,0,0,-1.4738,-1.4756,-1.4949,-1.4955,-1.4804,-1.4878,-1.4889,-1.4939,-1.499,-1.4993,-1.493,-1.4921,-1.503,-1.5043,-1.5057,-1.525,-1.5083,-1.5092,-1.5097,-1.5509,-1.5516,-1.5522,0,0,0,0,0,0,-1.4733,-1.4756,-1.4945,-1.4854,-1.4877,-1.4888,-1.4945,-1.4944,-1.4977,-1.4999,-1.5,-1.4963,-1.5026,-1.5044,-1.517,-1.5253,-1.5096,-1.5104,-1.5502,-1.5511,-1.5519,-1.5637,0,0,0,0,0,0,-1.4726,-1.4755,-1.4816,-1.4856,-1.4882,-1.5056,-1.495,-1.495,-1.4993,-1.4983,-1.5031,-1.5033,-1.5024,-1.5156,-1.5179,-1.5262,-1.5111,-1.5495,-1.5506,-1.5516,-1.5626,-1.5649,-1.5668,0,0,0,0,0,-1.4716,-1.4846,-1.482,-1.4843,-1.4959,-1.5061,-1.5076,-1.5061,-1.5,-1.5062,-1.5076,-1.5032,-1.5239,-1.517,-1.5194,-1.5282,-1.5489,-1.5503,-1.5515,-1.5616,-1.5644,-1.5668,0,0,0,0,0,0,-1.4816,-1.4851,-1.4822,-1.4968,-1.5012,-1.5047,-1.5125,-1.5091,-1.5154,-1.5142,-1.5121,-1.5133,-1.5265,-1.5285,-1.5208,-1.5441,-1.5355,-1.5373,-1.5423,-1.545,-1.547,-1.5464,-1.5119,0,0,0,0,0,-1.4855,-1.4934,-1.496,-1.5087,-1.511,-1.5114,-1.5158,-1.5142,-1.5187,-1.5206,-1.5229,-1.5275,-1.535,-1.5401,-1.5471,-1.5627,-1.5637,-1.5699,-1.572,-1.5738,-1.5755,-1.5839,-1.5867,-1.5565,-1.5564,-1.5564,0,0,-1.4937,-1.4965,-1.5017,-1.5107,-1.514,-1.5223,-1.513,-1.5222,-1.5284,-1.522,-1.534,-1.5359,-1.5408,-1.555,-1.5614,-1.5571,-1.584,-1.5754,-1.5768,-1.5776,-1.5855,-1.5884,-1.591,-1.5573,-1.5572,-1.557,0,0,-1.5128,-1.5157,-1.5266,-1.53,-1.5349,-1.535,-1.5377,-1.5416,-1.5426,-1.5545,-1.5499,-1.5572,-1.5702,-1.574,-1.5776,-1.598,-1.5942,-1.6003,-1.6115,-1.6197,-1.6221,-1.6242,-1.6316,-1.6343,-1.602,-1.602,-1.602,0,-1.5224,-1.5347,-1.5326,-1.5422,-1.5464,-1.5408,-1.5518,-1.5552,-1.5623,-1.5653,-1.5603,-1.5765,-1.5795,-1.5945,-1.5994,-1.6025,-1.6055,-1.5999,-1.6219,-1.624,-1.626,-1.633,-1.6358,-1.6027,-1.6026,-1.6026,-1.6025,0,-1.5462,-1.5549,-1.563,-1.5699,-1.5749,-1.5852,-1.5847,-1.5901,-1.588,-1.5887,-1.601,-1.6042,-1.6119,-1.6153,-1.6134,-1.63,-1.6272,-1.6222,-1.6135,-1.6296,-1.6362,-1.6388,-1.6037,-1.6035,-1.6033,-1.6031,0,0,-1.5723,-1.5777,-1.5808,-1.5838,-1.5888,-1.5954,-1.6054,-1.6127,-1.6174,-1.6224,-1.6308,-1.6418,-1.6371,-1.6412,-1.6397,-1.6469,-1.663,-1.6409,-1.641,-1.6451,-1.6815,-1.6854,-1.6886,-1.6603,-1.6608,-1.6612,-1.6811,0,-1.5917,-1.6091,-1.6074,-1.6239,-1.6319,-1.6266,-1.6352,-1.6393,-1.6401,-1.647,-1.6478,-1.6558,-1.6489,-1.6514,-1.6582,-1.6596,-1.6703,-1.6581,-1.6682,-1.6686,-1.6674,-1.692,-1.6962,-1.7149,-1.6837,-1.6841,-1.6844,0,-1.6169,-1.6227,-1.6399,-1.6436,-1.6469,-1.6548,-1.6613,-1.6679,-1.6724,-1.6724,-1.6769,-1.6741,-1.6842,-1.6751,-1.689,-1.6807,-1.6847,-1.686,-1.6867,-1.6877,-1.6777,-1.6939,-1.7207,-1.7236,-1.6884,-1.6881,-1.6878,0,-1.6343,-1.6464,-1.6583,-1.661,-1.6656,-1.6712,-1.6734,-1.6773,-1.6818,-1.6875,-1.6904,-1.6973,-1.7011,-1.7065,-1.7056,-1.6991,-1.7198,-1.7106,-1.7202,-1.7203,-1.725,-1.7248,-1.7531,-1.7273,-1.7273,-1.7272,-1.7272,0,-1.6564,-1.6672,-1.6662,-1.6735,-1.6855,-1.6834,-1.6953,-1.6968,-1.7002,-1.7078,-1.7036,-1.7108,-1.7091,-1.7162,-1.7156,-1.7272,-1.7289,-1.7293,-1.7291,-1.7298,-1.7298,-1.7326,-1.7314,-1.728,-1.7278,-1.7276,-1.7275,0,-1.678,-1.6777,-1.6903,-1.6936,-1.6946,-1.7033,-1.7061,-1.713,-1.7134,-1.723,-1.7251,-1.7258,-1.7339,-1.7335,-1.7428,-1.7423,-1.7567,-1.7548,-1.7553,-1.7549,-1.7646,-1.7638,-1.7959,-1.8,-1.7714,-1.7717,-1.7719,0,-1.6922,-1.7004,-1.7045,-1.7092,-1.7117,-1.7194,-1.7239,-1.7221,-1.7271,-1.7326,-1.7389,-1.7467,-1.7528,-1.7661,-1.7674,-1.7745,-1.7729,-1.7836,-1.7739,-1.7744,-1.7732,-1.7728,-1.7736,-1.7856,-1.7859,-1.7862,-1.7864,0,-1.7175,-1.7169,-1.7236,-1.7303,-1.7358,-1.741,-1.7457,-1.7498,-1.7485,-1.7543,-1.7625,-1.7673,-1.7766,-1.7844,-1.7911,-1.7934,-1.7898,-1.7894,-1.792,-1.793,-1.7929,-1.7932,-1.7607,-1.7887,-1.7885,-1.7883,-1.7882,-1.7881,-1.736,-1.743,-1.747,-1.7545,-1.7578,-1.7623,-1.769,-1.7701,-1.777,-1.7845,-1.783,-1.7923,-1.7963,-1.805,-1.8078,-1.8151,-1.8113,-1.815,-1.816,-1.817,-1.8182,-1.7916,-1.8163,-1.8162,-1.8161,-1.8161,-1.816,0,-1.7612,-1.7634,-1.7704,-1.7771,-1.7831,-1.7789,-1.7839,-1.7892,-1.7974,-1.8015,-1.8075,-1.817,-1.8245,-1.8263,-1.8335,-1.839,-1.8375,-1.8409,-1.8406,-1.8412,-1.8211,-1.8182,-1.842,-1.842,-1.842,-1.842,-1.842,-1.842,-1.7751,-1.7867,-1.7866,-1.7999,-1.802,-1.811,-1.8142,-1.8184,-1.8216,-1.8324,-1.8385,-1.8396,-1.8428,-1.8501,-1.8568,-1.8571,-1.86,-1.8642,-1.8639,-1.8452,-1.8426,-1.8401,-1.8374,-1.8648,-1.8648,-1.8834,-1.8835,-1.8837]},{"header":{"parameterUnit":"m.s-1","parameterCategory":1,"la1":30.2991,"la2":30.254,"lo1":-89.0895,"lo2":-89.0444,"dy":0.0017,"dx":0.0017,"nx":28,"ny":28,"refTime":"2023-11-21T09:00:00:Z","depth":0,"parameterNumber":3,"parameterNumberName":"V-component_of_WINDS"},"data":[0,0,0,0,0,0,0,0,0,0,0,0,0,0,0,0,0,0,0,0,0,0,0,0,0,0,0,0,0,0,0,0,0,0,0,0,0,0,0,0,0,0,0,0,0,0,0,0,0,0,0,0,0,0,0,0,0,0,-4.0643,-4.0645,0,-4.0776,-4.0777,-4.0779,-4.074,-4.0738,-4.0735,-4.0732,-4.0865,-4.0871,-4.0877,0,0,0,0,0,0,0,0,0,0,0,0,0,-4.0353,-4.0358,-4.0643,-4.0645,-4.0646,-4.0775,-4.0777,-4.0779,-4.0741,-4.0737,-4.0734,-4.0731,-4.0863,-4.087,-4.0877,0,0,0,0,0,0,0,0,0,0,0,0,0,-4.0481,-4.036,-4.0643,-4.0643,-4.0644,-4.0775,-4.0777,-4.0779,-4.0741,-4.0737,-4.0733,-4.0729,-4.0861,-4.0869,-4.0878,-4.1016,0,0,-4.0906,-4.091,0,0,0,0,0,0,0,0,-4.0474,-4.0492,-4.0641,-4.0643,-4.0645,-4.0737,-4.0723,-4.0859,-4.0742,-4.0704,-4.0732,-4.0727,-4.0826,-4.0837,-4.0871,-4.1022,-4.1028,-4.0907,-4.0913,-4.0917,-4.0919,0,0,0,0,0,0,0,-4.0465,-4.0486,-4.0695,-4.0643,-4.0646,-4.0635,-4.0649,-4.0749,-4.0786,-4.0707,-4.0705,-4.0721,-4.0826,-4.0862,-4.0874,-4.103,-4.0907,-4.0915,-4.0921,-4.0924,-4.1298,-4.1303,0,0,0,0,0,0,-4.0455,-4.0479,-4.0691,-4.0699,-4.0548,-4.0643,-4.0659,-4.0712,-4.0785,-4.0792,-4.0725,-4.0719,-4.0849,-4.0863,-4.0878,-4.1043,-4.0916,-4.0925,-4.093,-4.1294,-4.1299,-4.1304,0,0,0,0,0,0,-4.0449,-4.0475,-4.0686,-4.0589,-4.0615,-4.0653,-4.0712,-4.0716,-4.0753,-4.0798,-4.0804,-4.0756,-4.0846,-4.0866,-4.0982,-4.1047,-4.0929,-4.0937,-4.1289,-4.1296,-4.1302,-4.1374,0,0,0,0,0,0,-4.0441,-4.0473,-4.0527,-4.059,-4.062,-4.0789,-4.0717,-4.0722,-4.0769,-4.0763,-4.0829,-4.0836,-4.0844,-4.0969,-4.0991,-4.1057,-4.0944,-4.1283,-4.1292,-4.13,-4.1366,-4.1382,-4.1397,0,0,0,0,0,-4.0431,-4.0542,-4.053,-4.0556,-4.0688,-4.0793,-4.081,-4.0818,-4.0775,-4.0828,-4.0857,-4.0833,-4.1036,-4.0981,-4.1006,-4.1076,-4.1279,-4.1289,-4.1299,-4.1359,-4.1379,-4.1396,0,0,0,0,0,0,-4.0485,-4.055,-4.0537,-4.0672,-4.0727,-4.0786,-4.0854,-4.084,-4.0908,-4.0899,-4.0906,-4.0921,-4.104,-4.1069,-4.1006,-4.1212,-4.1151,-4.1167,-4.1188,-4.1208,-4.1223,-4.1212,-4.0952,0,0,0,0,0,-4.0512,-4.0593,-4.0645,-4.0759,-4.0787,-4.0816,-4.0862,-4.0864,-4.092,-4.0943,-4.098,-4.1035,-4.1111,-4.1161,-4.1234,-4.137,-4.1383,-4.143,-4.1446,-4.1458,-4.1471,-4.1543,-4.1564,-4.1337,-4.1337,-4.1337,0,0,-4.057,-4.0615,-4.0666,-4.0771,-4.0813,-4.0895,-4.0836,-4.0925,-4.0985,-4.0956,-4.1068,-4.1097,-4.1159,-4.1286,-4.1343,-4.1314,-4.1536,-4.1471,-4.148,-4.1487,-4.1556,-4.1577,-4.1596,-4.1344,-4.1343,-4.1342,0,0,-4.0716,-4.076,-4.0859,-4.0902,-4.0968,-4.0986,-4.101,-4.1071,-4.1089,-4.1202,-4.1181,-4.1252,-4.1383,-4.1427,-4.1467,-4.1628,-4.1609,-4.1652,-4.1731,-4.1801,-4.1819,-4.1835,-4.1891,-4.1911,-4.1665,-4.1665,-4.1665,0,-4.0779,-4.0903,-4.0911,-4.1002,-4.1047,-4.1026,-4.1124,-4.1166,-4.1252,-4.1283,-4.125,-4.1412,-4.1453,-4.1588,-4.1627,-4.1661,-4.1686,-4.1644,-4.1816,-4.1832,-4.1847,-4.19,-4.1921,-4.167,-4.1669,-4.1669,-4.1668,0,-4.0976,-4.1062,-4.1133,-4.1217,-4.1271,-4.1365,-4.1386,-4.1439,-4.1436,-4.1457,-4.157,-4.1618,-4.1698,-4.1731,-4.1729,-4.1866,-4.1845,-4.1814,-4.1753,-4.1873,-4.1923,-4.1944,-4.1676,-4.1675,-4.1673,-4.1672,0,0,-4.1161,-4.1247,-4.1273,-4.1309,-4.1379,-4.1445,-4.1537,-4.1617,-4.1661,-4.1721,-4.1797,-4.1908,-4.1879,-4.1924,-4.1926,-4.1988,-4.211,-4.1949,-4.195,-4.1976,-4.2262,-4.2284,-4.2308,-4.2098,-4.2102,-4.2105,-4.2256,0,-4.1312,-4.1476,-4.1485,-4.1633,-4.171,-4.169,-4.177,-4.1821,-4.1843,-4.1911,-4.1934,-4.2012,-4.1969,-4.1995,-4.2056,-4.2083,-4.2167,-4.2072,-4.2167,-4.217,-4.2151,-4.2334,-4.2359,-4.2499,-4.2276,-4.2279,-4.2281,0,-4.1511,-4.1577,-4.1732,-4.1789,-4.1822,-4.1895,-4.1967,-4.2033,-4.2089,-4.21,-4.215,-4.2143,-4.2235,-4.2171,-4.2298,-4.2232,-4.2272,-4.2291,-4.2296,-4.2305,-4.2233,-4.2346,-4.2544,-4.2565,-4.2313,-4.231,-4.2308,0,-4.1628,-4.1755,-4.1864,-4.1897,-4.1967,-4.2017,-4.2048,-4.2101,-4.2147,-4.221,-4.224,-4.2313,-4.2352,-4.2408,-4.242,-4.2372,-4.2545,-4.2483,-4.2556,-4.2556,-4.2593,-4.259,-4.2798,-4.262,-4.262,-4.2619,-4.2619,0,-4.1796,-4.1892,-4.1918,-4.1985,-4.2091,-4.2099,-4.2203,-4.223,-4.2277,-4.2347,-4.2334,-4.24,-4.2413,-4.2481,-4.2491,-4.2593,-4.2611,-4.2621,-4.2623,-4.2622,-4.2621,-4.2647,-4.2637,-4.2625,-4.2624,-4.2623,-4.2622,0,-4.1945,-4.1967,-4.2084,-4.214,-4.2156,-4.2231,-4.2278,-4.2342,-4.2361,-4.2451,-4.2472,-4.2503,-4.2582,-4.26,-4.2695,-4.2701,-4.2821,-4.2814,-4.2803,-4.2802,-4.2873,-4.2865,-4.3105,-4.3136,-4.2938,-4.294,-4.2942,0,-4.205,-4.2123,-4.2187,-4.2233,-4.2267,-4.2342,-4.239,-4.24,-4.245,-4.2518,-4.2572,-4.2651,-4.2714,-4.2841,-4.2871,-4.2943,-4.2936,-4.3015,-4.2946,-4.2943,-4.2935,-4.293,-4.2936,-4.3027,-4.3029,-4.3031,-4.3033,0,-4.2234,-4.224,-4.231,-4.2383,-4.2439,-4.2497,-4.2552,-4.259,-4.2608,-4.2664,-4.2745,-4.2794,-4.289,-4.2967,-4.3039,-4.3069,-4.3053,-4.3054,-4.3074,-4.3074,-4.3064,-4.3069,-4.2837,-4.3048,-4.3047,-4.3046,-4.3045,-4.3044,-4.2363,-4.2426,-4.2481,-4.2557,-4.26,-4.2651,-4.2712,-4.274,-4.2808,-4.2888,-4.2889,-4.2977,-4.3029,-4.3124,-4.3158,-4.3226,-4.3201,-4.3231,-4.3239,-4.3246,-4.3251,-4.3054,-4.3239,-4.3239,-4.3238,-4.3238,-4.3238,0,-4.2545,-4.2578,-4.2649,-4.2726,-4.2786,-4.2767,-4.2826,-4.2877,-4.2955,-4.3005,-4.3067,-4.316,-4.3234,-4.3269,-4.3342,-4.3389,-4.3384,-4.3408,-4.3404,-4.3411,-4.327,-4.3244,-4.3411,-4.3411,-4.3411,-4.3411,-4.3411,-4.3411,-4.2646,-4.2752,-4.2764,-4.289,-4.2922,-4.3009,-4.3044,-4.309,-4.313,-4.3234,-4.3296,-4.3319,-4.3362,-4.3438,-4.3504,-4.3512,-4.3539,-4.3566,-4.3571,-4.3439,-4.3421,-4.3404,-4.338,-4.3572,-4.3573,-4.3706,-4.3707,-4.3708]}]]